Flag for U.S.A. Weather past 2 weeks in Warren, Michigan, U.S.A.

Now
67 °F

Fog.


Feels Like: 67 °F
Forecast: 65 / 86 °F
Wind: No wind

Location: Detroit City Airport

Current Time: Sep 1, 2015 at 6:55:05 AM

Latest Report: Sep 1, 2015 at 5:53 AM


Visibility: 4 mi

Pressure: 30.06 "Hg

Humidity: 90%

Dew point: 64 °F

Location of WarrenLocation

Historic Weather in Warren — Graph

°F

Warren temperature yesterday

Maximum temperature yesterday: 85 °F (at 4:53 PM)
Minimum temperature yesterday: 68 °F (at 4:53 AM)
Average temperature yesterday: 75 °F

Past Weeks' High & Low Weather Summary

 TemperatureHumidityPressure
High88 °F (Aug 17, 12:53 PM)93% (Aug 20, 1:53 AM)30.22 "Hg (Aug 20, 1:53 AM)
Low52 °F (Aug 28, 6:53 AM)33% (Aug 21, 6:53 PM)29.68 "Hg (Aug 20, 3:04 AM)
Average70 °F69%30.01 "Hg
* Reported Aug 17 4:53 AM — Sep 1 4:53 AM, Warren, Weather by CustomWeather, © 2015

Note: Actual official high and low records may vary slightly from our data, if they occured in-between our weather recording intervals... More about our weather records

Advertising

Warren weather history for previous 24 hours

 ConditionsComfort  
Time TempWeatherWind HumidityBarometerVisibility
4:53 AM
Tue, Sep 1
67 °FFog.No wind90%30.06 "Hg5 mi
3:53 AM68 °FFog.No wind87%30.05 "Hg6 mi
2:53 AM69 °FClear.No wind84%30.05 "Hg8 mi
1:53 AM70 °FClear.No wind84%30.06 "Hg7 mi
12:53 AM71 °FClear.No wind78%30.06 "Hg9 mi
10:53 PM
Mon, Aug 31
72 °FClear.No wind73%30.05 "Hg10 mi
9:53 PM74 °FClear.No wind67%30.05 "Hg10 mi
8:53 PM74 °FSunny.3 mph69%30.05 "Hg10 mi
7:53 PM82 °FSunny.No wind55%30.02 "Hg9 mi
6:53 PM83 °FSunny.6 mph53%30.02 "Hg10 mi
5:53 PM85 °FSunny.5 mph50%30.02 "Hg10 mi
4:53 PM85 °FSunny.9 mph50%30.02 "Hg10 mi
3:53 PM83 °FSunny.9 mph53%30.04 "Hg10 mi
2:53 PM82 °FSunny.5 mph51%30.05 "Hg10 mi
1:53 PM82 °FSunny.7 mph49%30.06 "Hg10 mi
12:53 PM80 °FSunny.7 mph52%30.07 "Hg10 mi
11:53 AM77 °FSunny.8 mph62%30.08 "Hg10 mi
10:53 AM75 °FPassing clouds.10 mph69%30.08 "Hg9 mi
9:53 AM73 °FPassing clouds.7 mph76%30.08 "Hg7 mi
8:53 AM71 °FScattered clouds.5 mph81%30.07 "Hg6 mi
7:53 AM69 °FFog.No wind90%30.06 "Hg4 mi
6:53 AM68 °FFog.No wind90%30.04 "Hg5 mi
6:02 AM69 °FFog.3 mph90%30.04 "Hg5 mi
Weather by CustomWeather, © 2015

See weather overviewHow to use our weather pages